Regional Weather Roundup
Issued by NWS

Home | Current Version | Previous Version | Text Only | Print | Product List | Glossary Off
Versions: 1 2 3 4 5 6 7 8 9 10 11 12 13 14 15 16 17 18 19 20 21 22 23 24 25 26 27 28 29 30 31 32 33 34 35 36 37 38 39 40 41 42 43 44 45 46 47 48 49 50

467
ASUS44 KLIX 260411
RWRLA
LOUISIANA WEATHER ROUNDUP
NATIONAL WEATHER SERVICE NEW ORLEANS LA
1100 PM CDT WED MAR 25 2015

NOTE: "FAIR" INDICATES FEW OR NO CLOUDS BELOW 12,000 FEET WITH NO
      SIGNIFICANT WEATHER AND/OR OBSTRUCTIONS TO VISIBILITY.
      SKY/WX - SKY CONDITION AND SIGNIFICANT WEATHER.
      TMP - AIR TEMPERATURE.    DP   - DEWPOINT TEMPERATURE.
      RH  - RELATIVE HUMIDITY.  PRES - PRESSURE.
      HX  - HEAT INDEX.         WCI  - WIND CHILL INDEX.

*  THESE STATIONS ARE NOT NWS OR FAA STATIONS AND ARE NOT UNDER
   NWS QUALITY CONTROL.

LAZ040-048-061>063-065-066-069-260500-
SOUTHEAST LOUISIANA

CITY           SKY/WX    TMP DP  RH WIND       PRES   REMARKS
N.O. AUDUBON     N/A     67  67  99 MISG        N/A
N.O. INTL ARPT MOCLDY    66  60  81 SE6       30.00S
N.O. LAKEFRONT FAIR      69  62  78 SE8       30.00F
SLIDELL        FAIR      63  60  90 SE3       29.99F
BATON ROUGE    FAIR      68  58  70 S8        29.97S
BOOTHVILLE     FAIR      65  62  90 SE6       30.01F
BELLE CHASSE   MOCLDY    67  62  84 SE5       29.99S
BOGALUSA*        N/A     67  59  74 S6        30.01F
GALLIANO*      FAIR      70  65  83 CALM      30.00S
NEW ROADS*     FAIR      66  53  62 S6        29.97S
GONZALES*      FAIR      67  60  80 CALM      29.98S
HAMMOND*       FAIR      66  59  77 S6        30.00F
HOUMA*         FAIR      62  60  96 E5        29.99S
PORT FOURCHON* CLEAR     72  66  83 SE10      30.02F

$$

LAZ041-044-053-054-260500-
SOUTHWEST LOUISIANA

CITY           SKY/WX    TMP DP  RH WIND       PRES   REMARKS
LAKE CHARLES   FAIR      62  60  93 SE5       29.95F
LAFAYETTE      FAIR      67  62  84 S6        29.96F
PATTERSON      FAIR      66  61  82 SE6       29.98F
SALT POINT       N/A     65  62  90 SE5       29.96F
NEW IBERIA     FAIR      66  61  84 SE8       29.97F
CHENAULT AIRPK FAIR      59  58  97 SE5       29.96F

$$

LAZ027-028-260500-
CENTRAL LOUISIANA

CITY           SKY/WX    TMP DP  RH WIND       PRES   REMARKS
FORT POLK      FAIR      64  60  87 S9        29.93F
ALEXANDRIA INT FAIR      65  57  75 S9        29.91F
ALEXANDRIA     FAIR      65  57  75 S10G18    29.93F

$$

LAZ001-002-260500-
NORTHWEST LOUISIANA

CITY           SKY/WX    TMP DP  RH WIND       PRES   REMARKS
SHREVEPORT     MOCLDY    70  57  63 S9        29.89R
BARKSDALE AFB  FAIR      69  57  64 S15       29.88R
DTN SHREVEPORT FAIR      69  55  60 S15G22    29.89R

$$

LAZ014-016-260500-
NORTHEAST LOUISIANA

CITY           SKY/WX    TMP DP  RH WIND       PRES   REMARKS
MONROE         FAIR      67  56  67 S8        29.92R
TALLULAH       FAIR      70  53  54 S8        29.92S

$$




USA.gov is the U.S. government's official web portal to all federal, state and local government web resources and services.